Location: Bon Acre
(42.6442°N, 73.5758°W)
Time: 00:43:06
(UTC+00:00)

Cosmos 1933 - Pass Details

Date: 14 December 2025
Orbit: 510 x 517 km, 82.5° (Epoch: 17 January)

Event Time Altitude Azimuth Distance (km) Brightness Sun altitude
Rises 22:25:39 0° 203° (SSW) 2,624 7.5 -11.4°
Reaches altitude 10° 22:27:51 10° 210° (SSW) 1,741 6.7 -11.8°
Maximum altitude 22:31:29 41° 282° (WNW) 754 4.5 -12.4°
Drops below altitude 10° 22:35:08 10° 354° (N) 1,750 5.7 -13.1°
Sets 22:37:22 0° 2° (N) 2,640 6.6 -13.4°
